Location: Columbia
(38.9520°N, 92.3340°W)
Time: 11:19:02
(UTC-05:00)

Iridium 22 - Visible Passes

Search period start: 18 April 2014 00:00
Search period end: 28 April 2014 00:00
Orbit: 776 x 779 km, 86.4° (Epoch: 17 April)

Date Brightness Start Highest point End Pass type
(mag) Time Alt. Az. Time Alt. Az. Time Alt. Az.
18 Apr 7.7 00:17:56 10° N 00:19:37 21° N 00:19:37 21° N visible
18 Apr 7.7 23:44:39 10° NNE 23:46:18 20° NNE 23:46:18 20° NNE visible
19 Apr 8.2 01:26:11 10° NW 01:26:47 12° NW 01:26:47 12° NW visible
19 Apr 7.8 23:11:47 10° NNE 23:13:00 15° NE 23:13:00 15° NE visible
20 Apr 7.9 00:51:54 10° NNW 00:53:28 19° NNW 00:53:28 19° NNW visible
21 Apr 7.5 00:18:05 10° N 00:20:10 25° N 00:20:10 25° N visible
21 Apr 7.3 23:44:35 10° N 23:46:52 26° NNE 23:46:52 26° NNE visible
22 Apr 8.3 01:27:15 10° NW 01:27:21 10° NW 01:27:21 10° NW visible
22 Apr 7.4 23:11:26 10° NNE 23:13:35 22° NE 23:13:35 22° NE visible
23 Apr 7.9 00:52:24 10° NNW 00:54:04 18° NW 00:54:04 18° NW visible
23 Apr 7.6 22:38:50 10° NE 22:40:18 15° NE 22:40:18 15° NE visible
24 Apr 7.4 00:18:20 10° NNW 00:20:47 27° NNW 00:20:47 27° NNW visible
24 Apr 7.0 23:44:39 10° N 23:47:30 34° N 23:47:30 34° N visible
25 Apr 6.9 23:11:17 10° N 23:14:14 31° NNE 23:14:14 31° NNE visible
26 Apr 8.0 00:53:09 10° NW 00:54:43 15° NW 00:54:43 15° NW visible
26 Apr 7.2 22:38:19 10° NNE 22:40:59 22° NE 22:40:59 22° NE visible
27 Apr 7.4 00:18:43 10° NNW 00:21:28 26° NW 00:21:28 26° NW visible
27 Apr 7.6 22:06:08 10° NE 22:07:44 13° ENE 22:07:44 13° ENE visible
27 Apr 6.7 23:44:50 10° N 23:48:13 40° NNW 23:48:13 40° NNW visible
